sat.trackr.live / text

‹ back to catalog

LUR-1

NORAD 60506 · 2024-149AQ

PAYLOAD ACTIVE UNKNOWN

§ Identity

Operator
Country
SPN
Launch date
2024-08-16
Launch site
AFWTR
Launch vehicle
Mass (kg)
RCS (m²)

External: N2YO · Heavens-Above · Gunter

§ Orbital elements

Epoch: 2026-09-22T03:02:12.374304Z

Period
94.04 min
Inclination
97.3671°
Eccentricity
0.0003138
Mean motion
15.31185669 rev/d
Perigee alt
470.1 km
Apogee alt
474.4 km
Semi-major
6,850.4 km
B*
1.4032e-4
RAAN
343.2876°
Arg perigee
342.1522°
Mean anomaly
17.9609°
Rev number
11,680

§ Raw data

LUR-11 60506U 24149AQ  26265.12653211  .00004150  00000+0  14032-3 0  99912 60506  97.3671 343.2876 0003138 342.1522  17.9609 15.31185669116802

JSON: /api/v1/satellites/60506 · /tle

For live sub-satellite position, see the globe view (requires WebGL).

§ Visibility from observer

Set your observer location to see the next 7 days of passes ≥ 10°. The values pass through the URL so the page stays shareable.

No JS? Fill the form by hand. The geolocation button needs JavaScript.

§ Radio — SatNOGS DB

ModeDescriptionDownlinkUplink
FM S-band telemetry 2.217 GHz
FSK AX.100 Mode 5 Telemetry 401.700 MHz

2 transmitters · refreshed weekly from db.satnogs.org